Location: Buch
(49.7331°N, 12.1098°E)
Time: 13:11:40
(UTC+00:00)

Landsat 7 - Pass Details

Date: 01 October 2021
Orbit: 701 x 703 km, 98.0° (Epoch: 22 October)

Event Time Altitude Azimuth Distance (km) Brightness Sun altitude
Exits shadow 17:54:42 12° 70° (ENE) 2,041 5.7 -11.3°
Maximum altitude 17:55:55 13° 54° (NE) 1,973 5.7 -11.5°
Drops below altitude 10° 17:58:04 10° 27° (NNE) 2,181 6.2 -11.8°
Sets 18:01:30 0° 1° (N) 3,104 7.3 -12.4°
